When you browse on this site, cookies collect data to enhance your experience and personalize the content and advertising you see.
Visit our Privacy Policy to learn more. By continuing to use the site, you agree to this use of cookies and data.
  • In Hungary
  • List of Countries
  • For 7 days
  • Water Temperature
  • Satellite Maps
  • Weather Map
  • News
  • Weather Widgets
  • user-avatar
    Login

    Hourly Weather Buczkow

    Today, 23 May, Thursday

    Time Temperature Precipitation Wind Pressure Humidity
    00:00 +12°C° 0.4 mm 4 mps 739 mmHg 96%
    01:00 +12°C° 0 mm 4 mps 739 mmHg 97%
    02:00 +12°C° 0.3 mm 4 mps 739 mmHg 97%
    03:00 +12°C° 0.3 mm 4 mps 740 mmHg 97%
    04:00 +12°C° 0.3 mm 4 mps 740 mmHg 96%
    05:00 +13°C° 0.8 mm 4 mps 740 mmHg 96%
    06:00 +13°C° 0.8 mm 4 mps 740 mmHg 96%
    07:00 +13°C° 0.8 mm 3 mps 740 mmHg 95%
    08:00 +14°C° 1.7 mm 3 mps 741 mmHg 94%
    09:00 +14°C° 1.7 mm 3 mps 741 mmHg 94%
    10:00 +16°C° 1.7 mm 3 mps 741 mmHg 93%
    11:00 +14°C° 1.6 mm 4 mps 741 mmHg 93%
    12:00 +14°C° 1.6 mm 5 mps 742 mmHg 92%
    13:00 +14°C° 1.6 mm 6 mps 742 mmHg 92%
    14:00 +14°C° 1.3 mm 6 mps 742 mmHg 93%
    15:00 +14°C° 1.3 mm 6 mps 742 mmHg 93%
    16:00 +13°C° 1.3 mm 6 mps 742 mmHg 94%
    17:00 +13°C° 1.2 mm 6 mps 742 mmHg 94%
    18:00 +13°C° 1.2 mm 6 mps 742 mmHg 95%
    19:00 +12°C° 1.2 mm 5 mps 742 mmHg 95%
    20:00 +12°C° 1.5 mm 5 mps 742 mmHg 95%
    21:00 +12°C° 1.5 mm 4 mps 743 mmHg 96%
    22:00 +12°C° 1.5 mm 4 mps 743 mmHg 96%
    23:00 +12°C° 1.2 mm 4 mps 743 mmHg 96%

    Tomorrow, 24 May, Friday

    Time Temperature Precipitation Wind Pressure Humidity
    00:00 +12°C° 1.2 mm 4 mps 743 mmHg 96%
    01:00 +12°C° 1.2 mm 3 mps 743 mmHg 96%
    02:00 +12°C° 0.5 mm 3 mps 743 mmHg 96%
    03:00 +12°C° 0.5 mm 3 mps 743 mmHg 96%
    04:00 +12°C° 0.5 mm 3 mps 743 mmHg 96%
    05:00 +12°C° 0.3 mm 3 mps 743 mmHg 96%
    06:00 +12°C° 0.3 mm 3 mps 743 mmHg 96%
    07:00 +11°C° 0.3 mm 3 mps 743 mmHg 95%
    08:00 +12°C° 0.1 mm 3 mps 743 mmHg 93%
    09:00 +12°C° 0.1 mm 3 mps 743 mmHg 91%
    10:00 +13°C° 0.1 mm 4 mps 743 mmHg 89%
    11:00 +14°C° 0 mm 3 mps 743 mmHg 85%
    12:00 +16°C° 0 mm 3 mps 743 mmHg 81%
    13:00 +17°C° 0 mm 3 mps 743 mmHg 77%
    14:00 +18°C° 0 mm 3 mps 742 mmHg 77%
    15:00 +18°C° 0 mm 3 mps 742 mmHg 77%
    16:00 +18°C° 0 mm 3 mps 742 mmHg 77%
    17:00 +18°C° 0 mm 3 mps 742 mmHg 79%
    18:00 +17°C° 0 mm 3 mps 742 mmHg 82%
    19:00 +16°C° 0 mm 2 mps 742 mmHg 85%
    20:00 +15°C° 0 mm 2 mps 742 mmHg 86%
    21:00 +14°C° 0 mm 2 mps 742 mmHg 88%
    22:00 +13°C° 0 mm 2 mps 742 mmHg 90%
    23:00 +13°C° 0 mm 2 mps 742 mmHg 90%

    Day after tomorrow, 25 May, Saturday

    Time Temperature Precipitation Wind Pressure Humidity
    00:00 +12°C° 0 mm 2 mps 742 mmHg 91%
    01:00 +10°C° 0 mm 2 mps 742 mmHg 92%
    02:00 +10°C° 0 mm 2 mps 742 mmHg 92%
    03:00 +10°C° 0 mm 2 mps 742 mmHg 92%
    04:00 +10°C° 0 mm 2 mps 742 mmHg 92%
    05:00 +12°C° 0 mm 2 mps 742 mmHg 88%
    06:00 +14°C° 0 mm 2 mps 743 mmHg 84%
    07:00 +16°C° 0 mm 2 mps 743 mmHg 80%
    08:00 +17°C° 0 mm 2 mps 743 mmHg 74%
    09:00 +18°C° 0 mm 2 mps 743 mmHg 68%
    10:00 +20°C° 0 mm 3 mps 743 mmHg 62%
    11:00 +20°C° 0 mm 3 mps 742 mmHg 60%
    12:00 +21°C° 0 mm 3 mps 742 mmHg 58%
    13:00 +22°C° 0 mm 3 mps 742 mmHg 55%
    14:00 +22°C° 0 mm 3 mps 742 mmHg 57%
    15:00 +22°C° 0 mm 3 mps 742 mmHg 59%
    16:00 +22°C° 0 mm 3 mps 741 mmHg 61%
    17:00 +20°C° 0.2 mm 3 mps 741 mmHg 69%
    18:00 +19°C° 0.2 mm 2 mps 742 mmHg 76%
    19:00 +17°C° 0.2 mm 2 mps 742 mmHg 83%
    20:00 +16°C° 0 mm 2 mps 742 mmHg 85%
    21:00 +15°C° 0 mm 1 mps 742 mmHg 88%
    22:00 +14°C° 0 mm 1 mps 743 mmHg 90%
    23:00 +14°C° 0 mm 1 mps 743 mmHg 91%

    26 May, Sunday

    Time Temperature Precipitation Wind Pressure Humidity
    00:00 +13°C° 0 mm 1 mps 742 mmHg 91%
    01:00 +13°C° 0 mm 1 mps 742 mmHg 92%
    02:00 +13°C° 0 mm 1 mps 742 mmHg 92%
    03:00 +12°C° 0 mm 1 mps 742 mmHg 92%
    04:00 +12°C° 0 mm 1 mps 742 mmHg 92%
    05:00 +14°C° 0 mm 1 mps 742 mmHg 89%
    06:00 +15°C° 0 mm 1 mps 742 mmHg 86%
    07:00 +18°C° 0 mm 1 mps 742 mmHg 82%
    08:00 +18°C° 0.1 mm 2 mps 742 mmHg 79%
    09:00 +19°C° 0.1 mm 3 mps 742 mmHg 76%
    10:00 +21°C° 0.1 mm 3 mps 742 mmHg 72%
    11:00 +21°C° 0.2 mm 3 mps 742 mmHg 71%
    12:00 +22°C° 0.2 mm 3 mps 741 mmHg 69%
    13:00 +22°C° 0.2 mm 3 mps 741 mmHg 68%
    14:00 +22°C° 0.7 mm 3 mps 741 mmHg 71%
    15:00 +21°C° 0.7 mm 3 mps 741 mmHg 74%
    16:00 +21°C° 0.7 mm 3 mps 741 mmHg 77%
    17:00 +20°C° 0.5 mm 2 mps 741 mmHg 80%
    18:00 +18°C° 0.5 mm 2 mps 741 mmHg 82%
    19:00 +18°C° 0.5 mm 1 mps 741 mmHg 84%
    20:00 +16°C° 0 mm 1 mps 741 mmHg 85%
    21:00 +15°C° 0 mm 1 mps 742 mmHg 86%
    22:00 +13°C° 0 mm 0 mps 742 mmHg 87%
    23:00 +12°C° 0 mm 0 mps 742 mmHg 88%

    27 May, Monday

    Time Temperature Precipitation Wind Pressure Humidity
    00:00 +12°C° 0 mm 0 mps 742 mmHg 89%
    01:00 +13°C° 0 mm 1 mps 742 mmHg 90%
    02:00 +12°C° 0 mm 1 mps 742 mmHg 90%
    03:00 +12°C° 0 mm 1 mps 742 mmHg 91%
    04:00 +12°C° 0 mm 1 mps 742 mmHg 91%
    05:00 +13°C° 0 mm 1 mps 742 mmHg 89%
    06:00 +15°C° 0 mm 1 mps 742 mmHg 86%
    07:00 +18°C° 0 mm 1 mps 742 mmHg 84%
    08:00 +18°C° 0 mm 2 mps 742 mmHg 79%
    09:00 +20°C° 0 mm 2 mps 741 mmHg 75%
    10:00 +21°C° 0 mm 3 mps 741 mmHg 71%
    11:00 +21°C° 0.1 mm 2 mps 741 mmHg 72%
    12:00 +23°C° 0.1 mm 2 mps 740 mmHg 73%
    13:00 +23°C° 0.1 mm 2 mps 740 mmHg 74%
    14:00 +23°C° 0.3 mm 2 mps 740 mmHg 77%
    15:00 +22°C° 0.3 mm 1 mps 739 mmHg 79%
    16:00 +22°C° 0.3 mm 1 mps 739 mmHg 82%
    17:00 +21°C° 0.3 mm 1 mps 738 mmHg 84%
    18:00 +20°C° 0.3 mm 1 mps 738 mmHg 86%
    19:00 +18°C° 0.3 mm 2 mps 738 mmHg 89%
    20:00 +18°C° 1.3 mm 2 mps 738 mmHg 91%
    21:00 +18°C° 1.3 mm 2 mps 737 mmHg 94%
    22:00 +17°C° 1.3 mm 2 mps 737 mmHg 96%
    23:00 +17°C° 0.5 mm 2 mps 737 mmHg 96%

    28 May, Tuesday

    Time Temperature Precipitation Wind Pressure Humidity
    00:00 +17°C° 0.5 mm 2 mps 736 mmHg 96%
    01:00 +18°C° 0.5 mm 1 mps 736 mmHg 96%
    02:00 +16°C° 0.1 mm 2 mps 736 mmHg 96%
    03:00 +16°C° 0.1 mm 2 mps 735 mmHg 95%
    04:00 +16°C° 0.1 mm 2 mps 735 mmHg 95%
    05:00 +17°C° 0 mm 2 mps 735 mmHg 92%
    06:00 +18°C° 0 mm 2 mps 735 mmHg 89%
    07:00 +19°C° 0 mm 2 mps 735 mmHg 86%
    08:00 +20°C° 1.6 mm 2 mps 735 mmHg 81%
    09:00 +21°C° 1.6 mm 2 mps 735 mmHg 77%
    10:00 +23°C° 1.6 mm 2 mps 735 mmHg 73%
    11:00 +23°C° 2.5 mm 2 mps 735 mmHg 74%
    12:00 +22°C° 2.5 mm 3 mps 735 mmHg 76%
    13:00 +22°C° 2.5 mm 3 mps 735 mmHg 77%
    14:00 +22°C° 1.5 mm 3 mps 735 mmHg 77%
    15:00 +22°C° 1.5 mm 3 mps 735 mmHg 77%
    16:00 +23°C° 1.5 mm 2 mps 735 mmHg 78%
    17:00 +20°C° 0.6 mm 2 mps 735 mmHg 80%
    18:00 +20°C° 0.6 mm 1 mps 735 mmHg 83%
    19:00 +19°C° 0.6 mm 1 mps 735 mmHg 86%
    20:00 +19°C° 0 mm 1 mps 735 mmHg 87%
    21:00 +18°C° 0 mm 1 mps 736 mmHg 88%
    22:00 +16°C° 0 mm 1 mps 736 mmHg 89%
    23:00 +16°C° 0 mm 1 mps 736 mmHg 90%
    Show more